Regional Weather Roundup
Issued by NWS

Home | Current Version | Previous Version | Graphics & Text | Print | Product List | Glossary On
Versions: 1 2 3 4 5 6 7 8 9 10 11 12 13 14 15 16 17 18 19 20 21 22 23 24 25 26 27 28 29 30 31 32 33 34 35 36 37 38 39 40 41 42 43 44 45 46 47 48 49 50
710
ASUS44 KLIX 010601
RWRLA
LOUISIANA WEATHER ROUNDUP
NATIONAL WEATHER SERVICE NEW ORLEANS LA
100 AM CDT WED OCT 01 2014

NOTE: "FAIR" INDICATES FEW OR NO CLOUDS BELOW 12,000 FEET WITH NO
      SIGNIFICANT WEATHER AND/OR OBSTRUCTIONS TO VISIBILITY.
      SKY/WX - SKY CONDITION AND SIGNIFICANT WEATHER.
      TMP - AIR TEMPERATURE.    DP   - DEWPOINT TEMPERATURE.
      RH  - RELATIVE HUMIDITY.  PRES - PRESSURE.
      HX  - HEAT INDEX.         WCI  - WIND CHILL INDEX.

*  THESE STATIONS ARE NOT NWS OR FAA STATIONS AND ARE NOT UNDER
   NWS QUALITY CONTROL.

LAZ040-048-061>063-065-066-069-010700-
SOUTHEAST LOUISIANA

CITY           SKY/WX    TMP DP  RH WIND       PRES   REMARKS
N.O. AUDUBON   NOT AVBL
N.O. INTL ARPT PTCLDY    76  71  85 SE5       29.88S
6HR MIN TEMP:  76; 6HR MAX TEMP:  81;

N.O. LAKEFRONT CLEAR     76  72  87 SE7       29.88F
6HR MIN TEMP:  76; 6HR MAX TEMP:  80;

N.O. DOWNTOWN* FAIR      77  70  78 SE6       29.89R
6HR MIN TEMP:  77; 6HR MAX TEMP:  81;

SLIDELL        CLEAR     71  68  90 CALM      29.88S
6HR MIN TEMP:  70; 6HR MAX TEMP:  79;

BATON ROUGE    CLEAR     74  71  91 E5        29.87S
6HR MIN TEMP:  73; 6HR MAX TEMP:  82;

BOOTHVILLE     CLEAR     77  74  90 E5        29.89R
6HR MIN TEMP:  77; 6HR MAX TEMP:  79;

BELLE CHASSE   PTCLDY    75  71  87 SE3       29.88R
6HR MIN TEMP:  74; 6HR MAX TEMP:  79;

BOGALUSA*        N/A     70  67  90 CALM      29.90S FOG
6HR MIN TEMP:  69; 6HR MAX TEMP:  80;

GALLIANO*      NOT AVBL
NEW ROADS*     CLOUDY    75  72  90 CALM      29.87R
6HR MIN TEMP:  75; 6HR MAX TEMP:  81;

GONZALES*      FAIR      75  75 100 CALM      29.87S
6HR MIN TEMP:  75; 6HR MAX TEMP:  82;

HAMMOND*       NOT AVBL
HOUMA*         PTCLDY   N/A N/A N/A CALM      29.86F
PORT FOURCHON* CLEAR     81  73  78 SE12      29.89F

$$

LAZ041-044-053-054-010700-
SOUTHWEST LOUISIANA

CITY           SKY/WX    TMP DP  RH WIND       PRES   REMARKS
LAKE CHARLES   CLEAR     74  73  97 SE3       29.83S FOG
6HR MIN TEMP:  74; 6HR MAX TEMP:  81;

LAFAYETTE      PTCLDY    75  74  96 CALM      29.86S
6HR MIN TEMP:  75; 6HR MAX TEMP:  83;

PATTERSON      CLEAR     75  73  94 E5          N/A
6HR MIN TEMP:  75; 6HR MAX TEMP:  81;

SALT POINT       N/A     79  76  90 CALM      29.85S
6HR MIN TEMP:  79; 6HR MAX TEMP:  83; 6HR PCP:  0.02;

NEW IBERIA     CLEAR     76  74  93 SE5       29.86S
6HR MIN TEMP:  75; 6HR MAX TEMP:  83;

CHENAULT AIRPK CLEAR     74  73  98 CALM      29.84S FOG
6HR MIN TEMP:  73; 6HR MAX TEMP:  82;


$$

LAZ027-028-010700-
CENTRAL LOUISIANA

CITY           SKY/WX    TMP DP  RH WIND       PRES   REMARKS
FORT POLK      PTCLDY    73  71  95 E2        29.84R
6HR MIN TEMP:  73; 6HR MAX TEMP:  82;

ALEXANDRIA INT MOCLDY    74  71  91 SE5       29.83R
6HR MIN TEMP:  74; 6HR MAX TEMP:  82;

ALEXANDRIA     CLEAR     71  69  93 CALM      29.85R
6HR MIN TEMP:  71; 6HR MAX TEMP:  80;


$$

LAZ001-002-010700-
NORTHWEST LOUISIANA

CITY           SKY/WX    TMP DP  RH WIND       PRES   REMARKS
SHREVEPORT     MOCLDY    77  70  79 SE6       29.81F
6HR MIN TEMP:  75; 6HR MAX TEMP:  85;

BARKSDALE AFB  PTCLDY    73  68  83 SE5       29.82S
6HR MIN TEMP:  73; 6HR MAX TEMP:  82;

DTN SHREVEPORT CLEAR     76  68  76 SE5       29.82S
6HR MIN TEMP:  76; 6HR MAX TEMP:  84;


$$

LAZ014-016-010700-
NORTHEAST LOUISIANA

CITY           SKY/WX    TMP DP  RH WIND       PRES   REMARKS
MONROE         CLEAR     71  67  87 CALM      29.85S
6HR MIN TEMP:  70; 6HR MAX TEMP:  79;

TALLULAH       CLEAR     74  68  81 SE6       29.86F
6HR MIN TEMP:  69; 6HR MAX TEMP:  76;


$$




USA.gov is the U.S. government's official web portal to all federal, state and local government web resources and services.